FW8286 Weather Reports


time (UTC)temp
C
wind
direction
speed
KPH
gust
KPH
rain 1hr
cm
rain 24hr
cm
rain mn
cm
humidity
%
barometer
mb
20260504031542 10 186 6.4 16.1 0.00 0.00 0.00 69 1013.4
20260504031027 10 187 9.7 16.1 0.00 0.00 0.00 68 1013.4
20260504030531 10 182 6.4 14.5 0.00 0.00 0.00 69 1013.3
20260504030042 10 184 8.0 16.1 0.00 0.00 0.00 69 1013.5
20260504025528 10 171 8.0 16.1 0.00 0.00 0.00 69 1013.5
20260504025027 10 176 8.0 16.1 0.00 0.00 0.00 68 1013.5
20260504024547 10 188 8.0 16.1 0.00 0.00 0.00 68 1013.5
20260504024030 10 186 8.0 17.7 0.00 0.00 0.00 69 1013.6
20260504023527 10 195 8.0 17.7 0.00 0.00 0.00 69 1013.6
20260504023053 10 196 6.4 19.3 0.00 0.00 0.00 69 1013.5
20260504022528 10 200 8.0 19.3 0.00 0.00 0.00 69 1013.8
20260504022027 10 190 8.0 16.1 0.00 0.00 0.00 68 1013.7
20260504021542 10 192 9.7 16.1 0.00 0.00 0.00 68 1013.6
20260504021026 10 204 8.0 14.5 0.00 0.00 0.00 69 1013.7
20260504020527 10 178 8.0 16.1 0.00 0.00 0.00 68 1013.8
20260504020042 10 207 9.7 16.1 0.00 0.00 0.00 68 1013.8
20260504015528 10 191 8.0 25.7 0.00 0.00 0.00 69 1013.9
20260504015028 10 202 8.0 25.7 0.00 0.00 0.00 68 1013.9
20260504014553 10 183 11.3 25.7 0.00 0.00 0.00 68 1013.9
20260504014029 10 204 11.3 20.9 0.00 0.00 0.00 68 1013.9
20260504013527 10 217 12.9 24.1 0.00 0.00 0.00 67 1014.0
20260504013040 10 211 11.3 24.1 0.00 0.00 0.00 66 1014.0
20260504012532 11 223 14.5 24.1 0.00 0.00 0.00 66 1013.9
20260504012027 10 211 9.7 20.9 0.00 0.00 0.00 66 1014.0
20260504011543 11 228 6.4 17.7 0.00 0.00 0.00 66 1014.0
20260504011026 11 221 8.0 25.7 0.00 0.00 0.00 65 1013.9
20260504010528 11 205 8.0 25.7 0.00 0.00 0.00 65 1013.9
20260504010051 11 215 8.0 30.6 0.00 0.00 0.00 64 1014.0
20260504005528 11 234 6.4 30.6 0.00 0.00 0.00 62 1013.9
20260504005028 11 247 14.5 30.6 0.00 0.00 0.00 59 1013.8
20260504004549 12 236 16.1 30.6 0.00 0.00 0.00 56 1013.5
20260504004027 11 213 8.0 19.3 0.00 0.00 0.00 55 1013.5
20260504003532 12 217 8.0 14.5 0.00 0.00 0.00 55 1013.2
20260504003052 12 209 8.0 19.3 0.00 0.00 0.00 53 1013.2
20260504002528 12 202 11.3 19.3 0.00 0.00 0.00 52 1013.2
20260504002027 12 210 8.0 24.1 0.00 0.00 0.00 51 1013.2
20260504001555 12 219 9.7 30.6 0.00 0.00 0.00 52 1013.2
20260504001028 13 216 14.5 30.6 0.00 0.00 0.00 50 1013.2
20260504000527 13 221 9.7 20.9 0.00 0.00 0.00 50 1013.2
20260504000042 13 214 12.9 27.4 0.00 0.00 0.00 48 1013.2
20260503235528 13 236 11.3 27.4 0.00 0.00 0.00 49 1013.2
20260503235027 13 255 11.3 27.4 0.00 0.00 0.00 47 1013.2
20260503234544 13 217 14.5 27.4 0.00 0.00 0.00 48 1013.3
20260503234028 13 219 9.7 27.4 0.00 0.00 0.00 48 1013.4
20260503233528 14 189 14.5 27.4 0.00 0.00 0.00 47 1013.4
20260503233044 14 210 11.3 27.4 0.00 0.00 0.00 47 1013.3
20260503232530 14 221 12.9 27.4 0.00 0.00 0.00 47 1013.4
20260503232028 14 244 12.9 29.0 0.00 0.00 0.00 48 1013.4
20260503231542 14 218 8.0 29.0 0.00 0.00 0.00 49 1013.4
20260503231028 14 227 12.9 27.4 0.00 0.00 0.00 47 1013.3
20260503230525 14 206 11.3 27.4 0.00 0.00 0.00 47 1013.5
20260503230041 14 234 16.1 29.0 0.00 0.00 0.00 47 1013.5
20260503225528 14 227 16.1 35.4 0.00 0.00 0.00 47 1013.5
20260503225027 14 237 12.9 35.4 0.00 0.00 0.00 46 1013.6
20260503224546 14 232 11.3 32.2 0.00 0.00 0.00 47 1013.5
20260503224027 14 223 14.5 32.2 0.00 0.00 0.00 47 1013.5
20260503223531 14 225 14.5 27.4 0.00 0.00 0.00 47 1013.5
20260503223046 14 200 14.5 27.4 0.00 0.00 0.00 48 1013.5
20260503222528 15 211 14.5 27.4 0.00 0.00 0.00 47 1013.6
20260503222026 14 217 9.7 29.0 0.00 0.00 0.00 48 1013.6
20260503221552 14 245 11.3 30.6 0.00 0.00 0.00 48 1013.5
20260503221028 15 219 19.3 32.2 0.00 0.00 0.00 46 1013.6
20260503220531 15 215 16.1 35.4 0.00 0.00 0.00 47 1013.6
20260503220044 15 175 22.5 35.4 0.00 0.00 0.00 48 1013.5
20260503215528 15 230 12.9 30.6 0.00 0.00 0.00 48 1013.6
20260503215027 15 207 17.7 35.4 0.00 0.00 0.00 50 1013.7
20260503214541 15 203 16.1 38.6 0.00 0.00 0.00 49 1013.5
20260503214027 15 200 24.1 38.6 0.00 0.00 0.00 49 1013.7
20260503213527 15 202 17.7 35.4 0.00 0.00 0.00 47 1013.7
20260503213040 14 198 19.3 35.4 0.00 0.00 0.00 50 1013.7
20260503212530 14 211 19.3 32.2 0.00 0.00 0.00 51 1013.8
20260503212027 15 213 22.5 37.0 0.00 0.00 0.00 47 1013.7
20260503211547 15 231 20.9 37.0 0.00 0.00 0.00 50 1013.7
20260503211030 15 180 17.7 37.0 0.00 0.00 0.00 50 1013.7
20260503210534 15 255 14.5 37.0 0.00 0.00 0.00 49 1013.9
20260503210044 15 224 19.3 41.8 0.00 0.00 0.00 47 1013.8
20260503205528 15 217 16.1 41.8 0.00 0.00 0.00 50 1013.8
20260503205028 15 211 12.9 40.2 0.00 0.00 0.00 47 1013.8
20260503204543 15 217 20.9 35.4 0.00 0.00 0.00 47 1013.8
20260503204034 15 212 16.1 35.4 0.00 0.00 0.00 49 1013.8
20260503203530 15 240 19.3 33.8 0.00 0.00 0.00 50 1014.0
20260503203043 15 218 20.9 43.5 0.00 0.00 0.00 51 1014.0
20260503202529 15 217 17.7 43.5 0.00 0.00 0.00 49 1014.0
20260503202027 15 240 20.9 37.0 0.00 0.00 0.00 49 1014.0
20260503201541 15 219 19.3 37.0 0.00 0.00 0.00 50 1014.0
20260503201031 15 198 22.5 33.8 0.00 0.00 0.00 48 1014.1
20260503200530 15 196 19.3 37.0 0.00 0.00 0.00 50 1014.2
20260503200056 15 229 19.3 37.0 0.00 0.00 0.00 49 1014.1
20260503195530 16 225 14.5 33.8 0.00 0.00 0.00 47 1014.2
20260503195034 16 225 17.7 33.8 0.00 0.00 0.00 49 1014.3
20260503194543 15 271 16.1 32.2 0.00 0.00 0.00 49 1014.5
20260503194027 15 219 19.3 37.0 0.00 0.00 0.00 48 1014.6
20260503193530 15 207 20.9 37.0 0.00 0.00 0.00 48 1014.7
20260503193047 15 205 19.3 32.2 0.00 0.00 0.00 47 1014.8
20260503192527 16 206 11.3 30.6 0.00 0.00 0.00 47 1015.0
20260503192029 16 215 12.9 30.6 0.00 0.00 0.00 47 1015.0
20260503191541 15 205 12.9 30.6 0.00 0.00 0.00 48 1015.0
20260503191031 15 194 12.9 38.6 0.00 0.00 0.00 50 1015.3
20260503190528 15 198 20.9 38.6 0.00 0.00 0.00 49 1015.3
20260503190043 15 208 12.9 38.6 0.00 0.00 0.00 50 1015.3
20260503185529 15 223 19.3 45.1 0.00 0.00 0.00 48 1015.4
20260503185030 15 200 24.1 45.1 0.00 0.00 0.00 50 1015.5
20260503184547 15 230 14.5 30.6 0.00 0.00 0.00 47 1015.5
20260503184030 15 252 14.5 29.0 0.00 0.00 0.00 48 1015.5
20260503183529 16 223 11.3 27.4 0.00 0.00 0.00 52 1015.6
20260503183058 15 212 16.1 32.2 0.00 0.00 0.00 47 1015.6
20260503182529 15 221 16.1 33.8 0.00 0.00 0.00 54 1015.6
20260503182030 15 229 16.1 40.2 0.00 0.00 0.00 52 1015.8
20260503181558 14 215 17.7 40.2 0.00 0.00 0.00 51 1015.7
20260503181027 15 213 19.3 40.2 0.00 0.00 0.00 50 1015.9
20260503180527 15 267 12.9 27.4 0.00 0.00 0.00 55 1015.9
20260503180042 15 223 14.5 35.4 0.00 0.00 0.00 55 1015.9
20260503175527 15 208 19.3 35.4 0.00 0.00 0.00 55 1015.9
20260503175028 15 239 17.7 30.6 0.00 0.00 0.00 51 1016.0
20260503174538 15 247 14.5 33.8 0.00 0.00 0.00 53 1016.2
20260503174028 14 201 14.5 33.8 0.00 0.00 0.00 52 1016.1
20260503173528 15 223 12.9 30.6 0.00 0.00 0.00 54 1016.1
20260503173047 14 253 12.9 30.6 0.00 0.00 0.00 55 1016.3
20260503172531 14 175 17.7 30.6 0.00 0.00 0.00 59 1016.4
20260503172029 14 221 17.7 30.6 0.00 0.00 0.00 54 1016.4
20260503171542 14 263 8.0 30.6 0.00 0.00 0.00 58 1016.5
20260503171028 14 233 12.9 30.6 0.00 0.00 0.00 54 1016.6
20260503170529 14 223 9.7 29.0 0.00 0.00 0.00 55 1016.7
20260503150527 12 222 11.3 30.6 0.00 0.00 0.00 58 1017.4
20260503131033 7 207 11.3 19.3 0.00 0.00 0.00 64 1018.1
20260503130527 7 221 11.3 19.3 0.00 0.00 0.00 64 1018.0
20260503110533 1 216 6.4 11.3 0.00 0.00 0.00 81 1017.9
20260503081546 1 224 3.2 8.0 0.00 0.00 0.00 84 1017.6
20260503081028 1 242 3.2 8.0 0.00 0.00 0.00 85 1017.6
20260503080528 1 186 1.6 8.0 0.00 0.00 0.00 85 1017.7
20260503072528 1 215 4.8 8.0 0.00 0.00 0.00 85 1017.6
20260503072028 1 214 4.8 8.0 0.00 0.00 0.00 85 1017.6
20260503071541 2 217 4.8 8.0 0.00 0.00 0.00 85 1017.6
20260503071028 2 212 4.8 8.0 0.00 0.00 0.00 85 1017.6
20260503070528 2 213 3.2 6.4 0.00 0.00 0.00 86 1017.6
20260503070109 2 213 3.2 6.4 0.00 0.00 0.00 86 1017.6
20260503055027 2 203 4.8 8.0 0.00 0.00 0.00 85 1017.9
20260503054543 2 199 3.2 6.4 0.00 0.00 0.00 85 1018.1
20260503054029 2 198 3.2 6.4 0.00 0.00 0.00 85 1018.0
20260503053528 2 198 3.2 6.4 0.00 0.00 0.00 85 1018.0
20260503053049 2 198 3.2 6.4 0.00 0.00 0.00 84 1018.1
20260503052529 2 198 3.2 6.4 0.00 0.00 0.00 84 1018.0
20260503052029 2 198 3.2 6.4 0.00 0.00 0.00 84 1018.1
20260503051553 2 198 3.2 6.4 0.00 0.00 0.00 84 1018.0
20260503051027 3 198 3.2 6.4 0.00 0.00 0.00 84 1018.1
20260503050528 3 198 3.2 6.4 0.00 0.00 0.00 83 1018.1
20260503050045 3 198 3.2 6.4 0.00 0.00 0.00 83 1018.1
20260503045528 3 198 3.2 6.4 0.00 0.00 0.00 83 1018.1
20260503045031 3 197 4.8 8.0 0.00 0.00 0.00 83 1018.1
20260503044543 3 196 3.2 8.0 0.00 0.00 0.00 82 1018.1
20260503044028 3 196 4.8 8.0 0.00 0.00 0.00 82 1018.1
20260503043528 3 205 4.8 8.0 0.00 0.00 0.00 81 1018.1
20260503043044 4 202 4.8 9.7 0.00 0.00 0.00 81 1018.1
20260503042528 4 203 4.8 9.7 0.00 0.00 0.00 81 1018.1
20260503042028 4 200 6.4 9.7 0.00 0.00 0.00 80 1018.1
20260503041543 4 200 4.8 9.7 0.00 0.00 0.00 81 1018.2
20260503041031 4 211 4.8 9.7 0.00 0.00 0.00 81 1018.1
20260503040527 4 210 4.8 9.7 0.00 0.00 0.00 81 1018.1
20260503040049 4 205 3.2 8.0 0.00 0.00 0.00 82 1018.3
20260503035528 4 207 4.8 8.0 0.00 0.00 0.00 82 1018.3
20260503035028 4 196 1.6 6.4 0.00 0.00 0.00 82 1018.2
20260503034542 4 196 1.6 8.0 0.00 0.00 0.00 81 1018.3
20260503034028 4 196 3.2 8.0 0.00 0.00 0.00 81 1018.3
20260503033527 4 196 4.8 8.0 0.00 0.00 0.00 81 1018.3
20260503033048 4 194 3.2 8.0 0.00 0.00 0.00 81 1018.3
20260503032529 4 195 4.8 8.0 0.00 0.00 0.00 81 1018.3
20260503032028 4 193 3.2 6.4 0.00 0.00 0.00 81 1018.3